Time,TemperatureF,DewpointF,PressureIn,WindDirection,WindDirectionDegrees,WindSpeedMPH,WindSpeedGustMPH,Humidity,HourlyPrecipIn,Conditions,Clouds,dailyrainin,SoftwareType,DateUTC
2013-05-11 00:02:00,49.0,45.0,29.90,West,263,3.0,8.0,87,0.01,,,0.02,,2013-05-10 23:02:00,
2013-05-11 00:12:00,49.0,45.0,29.90,West,263,3.0,8.0,87,0.01,,,0.02,,2013-05-10 23:12:00,
2013-05-11 00:22:00,48.0,45.0,29.89,West,262,0.0,10.0,89,0.01,,,0.02,,2013-05-10 23:22:00,
2013-05-11 00:32:00,48.0,45.0,29.90,West,266,0.0,14.0,90,0.01,,,0.02,,2013-05-10 23:32:00,
2013-05-11 00:42:00,48.0,45.0,29.90,West,266,0.0,14.0,90,0.01,,,0.02,,2013-05-10 23:42:00,
2013-05-11 00:52:00,47.0,45.0,29.90,West,271,3.0,8.0,91,0.02,,,0.03,,2013-05-10 23:52:00,
2013-05-11 01:01:00,47.0,45.0,29.90,West,266,0.0,12.0,91,0.01,,,0.03,,2013-05-11 00:01:00,
2013-05-11 01:11:00,47.0,45.0,29.90,West,266,0.0,12.0,91,0.01,,,0.03,,2013-05-11 00:11:00,
2013-05-11 01:21:00,47.0,45.0,29.90,West,266,0.0,12.0,91,0.01,,,0.03,,2013-05-11 00:21:00,
2013-05-11 01:32:00,46.0,44.0,29.89,West,272,3.0,8.0,93,0.02,,,0.05,,2013-05-11 00:32:00,
2013-05-11 01:42:00,46.0,44.0,29.89,West,272,3.0,8.0,93,0.02,,,0.05,,2013-05-11 00:42:00,
2013-05-11 01:52:00,46.0,44.0,29.89,West,272,3.0,8.0,93,0.02,,,0.05,,2013-05-11 00:52:00,
2013-05-11 02:01:00,45.0,43.0,29.87,NW,310,0.0,4.0,93,0.03,,,0.06,,2013-05-11 01:01:00,
2013-05-11 02:11:00,45.0,43.0,29.87,NW,310,0.0,4.0,93,0.03,,,0.06,,2013-05-11 01:11:00,
2013-05-11 02:21:00,45.0,43.0,29.86,NW,310,0.0,4.0,94,0.03,,,0.07,,2013-05-11 01:21:00,
2013-05-11 02:31:00,45.0,44.0,29.87,WNW,291,0.0,8.0,95,0.02,,,0.07,,2013-05-11 01:31:00,
2013-05-11 02:42:00,45.0,44.0,29.87,WNW,291,0.0,8.0,95,0.02,,,0.07,,2013-05-11 01:42:00,
2013-05-11 02:52:00,45.0,44.0,29.86,West,273,0.0,4.0,95,0.02,,,0.07,,2013-05-11 01:52:00,
2013-05-11 03:02:00,45.0,44.0,29.86,West,273,0.0,4.0,95,0.01,,,0.07,,2013-05-11 02:02:00,
2013-05-11 03:11:00,45.0,44.0,29.86,West,273,0.0,4.0,95,0.01,,,0.07,,2013-05-11 02:11:00,
2013-05-11 03:21:00,45.0,44.0,29.86,West,274,0.0,6.0,95,0.01,,,0.07,,2013-05-11 02:21:00,
2013-05-11 03:32:00,45.0,44.0,29.86,West,271,3.0,6.0,95,0.00,,,0.07,,2013-05-11 02:32:00,
2013-05-11 03:42:00,45.0,44.0,29.86,West,271,3.0,6.0,95,0.00,,,0.07,,2013-05-11 02:42:00,
2013-05-11 03:51:00,45.0,44.0,29.86,West,271,3.0,6.0,95,0.00,,,0.07,,2013-05-11 02:51:00,
2013-05-11 04:01:00,44.0,43.0,29.85,WSW,257,0.0,6.0,95,0.00,,,0.07,,2013-05-11 03:01:00,
2013-05-11 04:11:00,44.0,43.0,29.85,WSW,257,0.0,6.0,95,0.00,,,0.07,,2013-05-11 03:11:00,
2013-05-11 04:21:00,44.0,43.0,29.84,West,261,0.0,6.0,95,0.00,,,0.07,,2013-05-11 03:21:00,
2013-05-11 04:32:00,44.0,43.0,29.84,West,265,0.0,8.0,95,0.00,,,0.07,,2013-05-11 03:32:00,
2013-05-11 04:42:00,44.0,43.0,29.84,West,265,0.0,8.0,95,0.00,,,0.07,,2013-05-11 03:42:00,
2013-05-11 04:53:00,44.0,43.0,29.84,West,265,0.0,8.0,95,0.00,,,0.07,,2013-05-11 03:53:00,
2013-05-11 05:02:00,43.0,42.0,29.84,West,281,3.0,10.0,95,0.00,,,0.07,,2013-05-11 04:02:00,
2013-05-11 05:12:00,43.0,42.0,29.84,West,281,3.0,10.0,95,0.00,,,0.07,,2013-05-11 04:12:00,
2013-05-11 05:23:00,43.0,42.0,29.84,West,281,3.0,10.0,95,0.00,,,0.07,,2013-05-11 04:23:00,
2013-05-11 05:33:00,43.0,42.0,29.84,WSW,258,0.0,8.0,95,0.00,,,0.06,,2013-05-11 04:33:00,
2013-05-11 05:43:00,43.0,42.0,29.84,WSW,258,0.0,8.0,95,0.00,,,0.06,,2013-05-11 04:43:00,
2013-05-11 05:52:00,43.0,42.0,29.84,WSW,258,0.0,8.0,95,0.00,,,0.06,,2013-05-11 04:52:00,
2013-05-11 06:02:00,43.0,42.0,29.84,West,274,0.0,8.0,96,0.00,,,0.06,,2013-05-11 05:02:00,
2013-05-11 06:11:00,43.0,42.0,29.84,West,274,0.0,8.0,96,0.00,,,0.06,,2013-05-11 05:11:00,
2013-05-11 06:21:00,43.0,42.0,29.83,West,262,0.0,6.0,96,0.00,,,0.06,,2013-05-11 05:21:00,
2013-05-11 06:32:00,43.0,42.0,29.83,West,270,0.0,6.0,96,0.00,,,0.06,,2013-05-11 05:32:00,
2013-05-11 06:42:00,43.0,42.0,29.83,West,270,0.0,6.0,96,0.00,,,0.06,,2013-05-11 05:42:00,
2013-05-11 06:52:00,43.0,42.0,29.82,WSW,251,3.0,10.0,96,0.00,,,0.06,,2013-05-11 05:52:00,
2013-05-11 07:02:00,44.0,43.0,29.82,WSW,242,3.0,10.0,97,0.00,,,0.06,,2013-05-11 06:02:00,
2013-05-11 07:12:00,44.0,43.0,29.82,WSW,242,3.0,10.0,97,0.00,,,0.06,,2013-05-11 06:12:00,
2013-05-11 07:21:00,44.0,43.0,29.82,WSW,247,3.0,14.0,96,0.00,,,0.06,,2013-05-11 06:21:00,
2013-05-11 07:32:00,44.0,43.0,29.82,WSW,247,3.0,14.0,96,0.00,,,0.06,,2013-05-11 06:32:00,
2013-05-11 07:42:00,44.0,43.0,29.82,WSW,247,3.0,14.0,96,0.00,,,0.06,,2013-05-11 06:42:00,
2013-05-11 07:52:00,44.0,43.0,29.82,WSW,247,3.0,14.0,96,0.00,,,0.06,,2013-05-11 06:52:00,
2013-05-11 08:21:00,46.0,44.0,29.81,WSW,255,3.0,14.0,94,0.00,,,0.06,,2013-05-11 07:21:00,
2013-05-11 08:32:00,46.0,44.0,29.81,WSW,255,3.0,14.0,94,0.00,,,0.06,,2013-05-11 07:32:00,
2013-05-11 08:42:00,46.0,44.0,29.81,WSW,255,3.0,14.0,94,0.00,,,0.06,,2013-05-11 07:42:00,
2013-05-11 08:52:00,47.0,45.0,29.82,WSW,253,3.0,12.0,92,0.00,,,0.06,,2013-05-11 07:52:00,
2013-05-11 09:01:00,49.0,46.0,29.81,West,260,6.0,16.0,88,0.00,,,0.06,,2013-05-11 08:01:00,
2013-05-11 09:12:00,49.0,46.0,29.81,West,260,6.0,16.0,88,0.00,,,0.06,,2013-05-11 08:12:00,
2013-05-11 09:21:00,49.0,46.0,29.81,West,260,6.0,16.0,88,0.00,,,0.06,,2013-05-11 08:21:00,
2013-05-11 09:31:00,50.0,45.0,29.81,West,272,3.0,16.0,84,0.00,,,0.06,,2013-05-11 08:31:00,
2013-05-11 09:42:00,50.0,44.0,29.81,West,270,3.0,12.0,81,0.00,,,0.06,,2013-05-11 08:42:00,
2013-05-11 09:52:00,50.0,44.0,29.81,West,270,3.0,12.0,81,0.00,,,0.06,,2013-05-11 08:52:00,
2013-05-11 10:01:00,50.0,44.0,29.81,West,270,3.0,12.0,81,0.00,,,0.06,,2013-05-11 09:01:00,
2013-05-11 10:11:00,50.0,44.0,29.81,West,270,3.0,12.0,81,0.00,,,0.06,,2013-05-11 09:11:00,
2013-05-11 10:21:00,52.0,45.0,29.80,West,279,6.0,18.0,76,0.00,,,0.06,,2013-05-11 09:21:00,
2013-05-11 10:32:00,52.0,45.0,29.80,West,279,6.0,18.0,76,0.00,,,0.06,,2013-05-11 09:32:00,
2013-05-11 10:42:00,52.0,45.0,29.80,West,279,6.0,18.0,76,0.00,,,0.06,,2013-05-11 09:42:00,
2013-05-11 10:52:00,52.0,45.0,29.80,West,279,6.0,18.0,76,0.00,,,0.06,,2013-05-11 09:52:00,
2013-05-11 11:03:00,54.0,46.0,29.80,West,268,6.0,16.0,74,0.00,,,0.06,,2013-05-11 10:03:00,
2013-05-11 11:12:00,54.0,46.0,29.80,West,268,6.0,16.0,74,0.00,,,0.06,,2013-05-11 10:12:00,
2013-05-11 11:22:00,54.0,46.0,29.80,West,274,9.0,16.0,73,0.00,,,0.06,,2013-05-11 10:22:00,
2013-05-11 11:32:00,54.0,45.0,29.80,West,276,6.0,18.0,71,0.00,,,0.06,,2013-05-11 10:32:00,
2013-05-11 11:42:00,54.0,45.0,29.80,West,276,6.0,18.0,71,0.00,,,0.06,,2013-05-11 10:42:00,
2013-05-11 11:52:00,54.0,45.0,29.80,West,276,6.0,18.0,71,0.00,,,0.06,,2013-05-11 10:52:00,
2013-05-11 12:02:00,54.0,45.0,29.80,West,276,6.0,18.0,71,0.00,,,0.06,,2013-05-11 11:02:00,
2013-05-11 12:11:00,54.0,45.0,29.80,West,276,6.0,18.0,71,0.00,,,0.06,,2013-05-11 11:11:00,
2013-05-11 12:21:00,54.0,45.0,29.80,West,278,6.0,10.0,72,0.00,,,0.06,,2013-05-11 11:21:00,
2013-05-11 12:32:00,54.0,46.0,29.80,West,281,6.0,16.0,73,0.00,,,0.06,,2013-05-11 11:32:00,
2013-05-11 12:42:00,54.0,46.0,29.80,West,281,6.0,16.0,73,0.00,,,0.06,,2013-05-11 11:42:00,
2013-05-11 12:51:00,54.0,46.0,29.80,West,272,9.0,18.0,73,0.00,,,0.06,,2013-05-11 11:51:00,
2013-05-11 13:01:00,54.0,47.0,29.80,West,268,6.0,16.0,76,0.00,,,0.06,,2013-05-11 12:01:00,
2013-05-11 13:11:00,54.0,47.0,29.80,West,268,6.0,16.0,76,0.00,,,0.06,,2013-05-11 12:11:00,
2013-05-11 13:21:00,54.0,47.0,29.80,West,272,6.0,10.0,77,0.00,,,0.06,,2013-05-11 12:21:00,
2013-05-11 13:32:00,55.0,48.0,29.79,West,269,6.0,14.0,76,0.00,,,0.06,,2013-05-11 12:32:00,
2013-05-11 13:42:00,55.0,48.0,29.79,West,269,6.0,14.0,76,0.00,,,0.06,,2013-05-11 12:42:00,
2013-05-11 13:51:00,55.0,48.0,29.79,West,269,6.0,14.0,76,0.00,,,0.06,,2013-05-11 12:51:00,
2013-05-11 14:01:00,55.0,48.0,29.79,West,269,6.0,14.0,76,0.00,,,0.06,,2013-05-11 13:01:00,
2013-05-11 14:11:00,55.0,48.0,29.79,West,269,6.0,14.0,76,0.00,,,0.06,,2013-05-11 13:11:00,
2013-05-11 14:32:00,56.0,48.0,29.77,West,266,6.0,16.0,75,0.00,,,0.06,,2013-05-11 13:32:00,
2013-05-11 14:42:00,56.0,48.0,29.77,West,266,6.0,16.0,75,0.00,,,0.06,,2013-05-11 13:42:00,
2013-05-11 14:52:00,56.0,48.0,29.77,West,266,6.0,16.0,75,0.00,,,0.06,,2013-05-11 13:52:00,
2013-05-11 15:02:00,56.0,48.0,29.77,West,266,6.0,16.0,75,0.00,,,0.06,,2013-05-11 14:02:00,
2013-05-11 15:11:00,56.0,48.0,29.77,West,266,6.0,16.0,75,0.00,,,0.06,,2013-05-11 14:11:00,
2013-05-11 15:21:00,54.0,51.0,29.77,West,275,6.0,18.0,88,0.04,,,0.09,,2013-05-11 14:21:00,
2013-05-11 15:32:00,54.0,50.0,29.77,West,279,9.0,14.0,86,0.04,,,0.09,,2013-05-11 14:32:00,
2013-05-11 15:42:00,54.0,50.0,29.77,West,279,9.0,14.0,86,0.04,,,0.09,,2013-05-11 14:42:00,
2013-05-11 15:52:00,54.0,48.0,29.77,West,277,9.0,22.0,81,0.04,,,0.09,,2013-05-11 14:52:00,
2013-05-11 16:01:00,54.0,46.0,29.77,West,269,9.0,30.0,75,0.00,,,0.09,,2013-05-11 15:01:00,
2013-05-11 16:11:00,54.0,46.0,29.77,West,269,9.0,30.0,75,0.00,,,0.09,,2013-05-11 15:11:00,
2013-05-11 16:21:00,54.0,46.0,29.77,West,276,9.0,22.0,74,0.00,,,0.09,,2013-05-11 15:21:00,
2013-05-11 16:32:00,54.0,45.0,29.77,West,275,6.0,16.0,71,0.00,,,0.09,,2013-05-11 15:32:00,
2013-05-11 16:42:00,54.0,45.0,29.77,West,275,6.0,16.0,71,0.00,,,0.09,,2013-05-11 15:42:00,
2013-05-11 16:53:00,54.0,45.0,29.77,West,275,6.0,16.0,71,0.00,,,0.09,,2013-05-11 15:53:00,
2013-05-11 17:02:00,54.0,45.0,29.77,West,275,6.0,16.0,71,0.00,,,0.09,,2013-05-11 16:02:00,
2013-05-11 17:22:00,55.0,45.0,29.77,West,273,9.0,20.0,69,0.00,,,0.09,,2013-05-11 16:22:00,
2013-05-11 17:33:00,55.0,45.0,29.77,West,273,9.0,20.0,69,0.00,,,0.09,,2013-05-11 16:33:00,
2013-05-11 17:42:00,55.0,45.0,29.77,West,273,9.0,20.0,69,0.00,,,0.09,,2013-05-11 16:42:00,
2013-05-11 17:52:00,55.0,45.0,29.77,WNW,285,6.0,12.0,68,0.00,,,0.09,,2013-05-11 16:52:00,
2013-05-11 18:02:00,55.0,43.0,29.77,WNW,292,9.0,16.0,65,0.00,,,0.09,,2013-05-11 17:02:00,
2013-05-11 18:12:00,55.0,43.0,29.77,WNW,292,9.0,16.0,65,0.00,,,0.09,,2013-05-11 17:12:00,
2013-05-11 18:22:00,54.0,44.0,29.78,West,281,9.0,28.0,68,0.00,,,0.09,,2013-05-11 17:22:00,
2013-05-11 18:31:00,53.0,46.0,29.78,WNW,292,6.0,18.0,76,0.00,,,0.09,,2013-05-11 17:31:00,
2013-05-11 18:41:00,53.0,46.0,29.78,WNW,292,6.0,18.0,76,0.00,,,0.09,,2013-05-11 17:41:00,
2013-05-11 18:51:00,53.0,45.0,29.78,WNW,284,3.0,16.0,73,0.00,,,0.09,,2013-05-11 17:51:00,
2013-05-11 19:01:00,51.0,42.0,29.80,NW,308,3.0,10.0,72,0.00,,,0.09,,2013-05-11 18:01:00,
2013-05-11 19:11:00,51.0,42.0,29.80,NW,308,3.0,10.0,72,0.00,,,0.09,,2013-05-11 18:11:00,
2013-05-11 19:21:00,51.0,42.0,29.80,NW,308,3.0,10.0,72,0.00,,,0.09,,2013-05-11 18:21:00,
2013-05-11 19:32:00,47.0,44.0,29.79,SSE,162,0.0,4.0,88,0.05,,,0.14,,2013-05-11 18:32:00,
2013-05-11 19:41:00,47.0,44.0,29.79,SSE,162,0.0,4.0,88,0.05,,,0.14,,2013-05-11 18:41:00,
2013-05-11 19:52:00,47.0,44.0,29.79,SSE,162,0.0,4.0,88,0.05,,,0.14,,2013-05-11 18:52:00,
2013-05-11 20:02:00,46.0,44.0,29.79,NW,310,0.0,6.0,91,0.06,,,0.15,,2013-05-11 19:02:00,
2013-05-11 20:11:00,46.0,44.0,29.79,NW,310,0.0,6.0,91,0.06,,,0.15,,2013-05-11 19:11:00,
2013-05-11 20:21:00,46.0,44.0,29.79,NW,310,0.0,6.0,91,0.06,,,0.15,,2013-05-11 19:21:00,
2013-05-11 20:32:00,46.0,44.0,29.79,NW,310,0.0,6.0,91,0.06,,,0.15,,2013-05-11 19:32:00,
2013-05-11 20:52:00,45.0,43.0,29.83,WNW,296,3.0,6.0,92,0.03,,,0.17,,2013-05-11 19:52:00,
2013-05-11 21:01:00,45.0,43.0,29.83,WNW,296,3.0,6.0,92,0.03,,,0.17,,2013-05-11 20:01:00,
2013-05-11 21:12:00,45.0,43.0,29.83,WNW,296,3.0,6.0,92,0.03,,,0.17,,2013-05-11 20:12:00,
2013-05-11 21:22:00,44.0,42.0,29.83,West,279,3.0,8.0,94,0.05,,,0.20,,2013-05-11 20:22:00,
2013-05-11 21:32:00,44.0,43.0,29.84,West,279,0.0,6.0,95,0.03,,,0.20,,2013-05-11 20:32:00,
2013-05-11 21:42:00,44.0,43.0,29.84,West,279,0.0,6.0,95,0.03,,,0.20,,2013-05-11 20:42:00,
2013-05-11 21:52:00,44.0,43.0,29.84,West,279,0.0,6.0,95,0.03,,,0.20,,2013-05-11 20:52:00,
2013-05-11 22:01:00,44.0,43.0,29.85,West,269,3.0,12.0,95,0.00,,,0.20,,2013-05-11 21:01:00,
2013-05-11 22:11:00,44.0,43.0,29.85,West,269,3.0,12.0,95,0.00,,,0.20,,2013-05-11 21:11:00,
2013-05-11 22:21:00,44.0,43.0,29.85,West,269,3.0,12.0,95,0.00,,,0.20,,2013-05-11 21:21:00,
2013-05-11 22:33:00,44.0,43.0,29.85,West,269,3.0,12.0,95,0.00,,,0.20,,2013-05-11 21:33:00,
2013-05-11 22:43:00,44.0,43.0,29.85,West,269,3.0,12.0,95,0.00,,,0.20,,2013-05-11 21:43:00,
2013-05-11 22:52:00,43.0,42.0,29.85,WNW,286,0.0,6.0,95,0.00,,,0.20,,2013-05-11 21:52:00,
2013-05-11 23:02:00,43.0,42.0,29.87,West,273,3.0,8.0,95,0.00,,,0.20,,2013-05-11 22:02:00,
2013-05-11 23:12:00,43.0,42.0,29.87,West,273,3.0,8.0,95,0.00,,,0.20,,2013-05-11 22:12:00,
2013-05-11 23:22:00,43.0,42.0,29.87,West,280,3.0,8.0,95,0.00,,,0.20,,2013-05-11 22:22:00,
2013-05-11 23:33:00,43.0,42.0,29.87,West,280,3.0,8.0,95,0.00,,,0.20,,2013-05-11 22:33:00,
2013-05-11 23:42:00,43.0,42.0,29.87,West,280,3.0,8.0,95,0.00,,,0.20,,2013-05-11 22:42:00,
2013-05-11 23:52:00,42.0,41.0,29.88,WNW,287,0.0,8.0,95,0.00,,,0.20,,2013-05-11 22:52:00,